Location: Nitra
(0.0000°N, 18.0833°E)
Time: 18:33:56
(UTC+01:00)

DELTA 2 R/B (1) - Pass Details

Date: 24 January 2021
Orbit: 790 x 802 km, 39.6° (Epoch: 01 March)

Event Time Altitude Azimuth Distance (km) Brightness Sun altitude
Rises 19:28:23 0° 311° (NW) 3,269 7.1 -20.9°
Reaches altitude 10° 19:30:51 10° 311° (NW) 2,341 6.4 -21.4°
Maximum altitude 19:36:23 86° 224° (SW) 792 3.5 -22.7°
Enters shadow 19:39:17 29° 135° (SE) 1,402 4.6 -23.4°
